Location: Unspecified
(43.1300°N, 0.0000°E)
Time: 06:03:07
(UTC+00:00)

Tiros 1 - Visible Passes

Search period start: 05 April 2026 00:00
Search period end: 15 April 2026 00:00
Orbit: 618 x 650 km, 48.4° (Epoch: 28 March)

Date Brightness Start Highest point End Pass type
(mag) Time Alt. Az. Time Alt. Az. Time Alt. Az.
5 Apr 7.4 20:26:05 10° WNW 20:30:45 59° SSW 20:31:42 48° SSE visible
6 Apr 7.2 19:05:43 10° WNW 19:10:26 74° NNE 19:15:02 11° ESE visible
6 Apr 8.3 20:47:56 10° WNW 20:52:06 31° SW 20:52:25 31° SSW visible
7 Apr 7.3 19:27:18 10° WNW 19:32:00 70° SSW 19:35:48 15° SE visible
7 Apr 9.3 21:10:24 10° W 21:13:12 16° SW 21:13:12 16° SW visible
8 Apr 8.2 19:49:03 10° WNW 19:53:25 38° SW 19:56:39 16° SSE visible
9 Apr 9.2 20:11:13 10° W 20:14:39 20° SW 20:17:33 12° S visible
11 Apr 9.0 19:12:10 10° W 19:15:59 25° SW 19:19:47 10° SSE visible
12 Apr 9.8 19:35:19 10° WSW 19:37:06 12° SW 19:38:52 10° SSW visible
